Meteo Giornale » Osservazioni meteo Italia » Treviso-S Angelo

ore: 20:50 - Osservazioni Meteo Treviso-S Angelo
Lat. 45° 39' N Lon. 12° 11' E Alt. 18 metri s.l.m.

nuvoloso Europe/Rome

18 °C

Nuvoloso

Temp. 24 Ore

15 °C

20 °C

Nord

3.7 Km/h

Dew point 15 °C

Umidità 82 %

Visibilità  10 Km

Il sole sorge alle ore 07:29

Il sole tramonta alle ore 18:23

Data e Ora Cielo e Fenomeni T °C DP °C Um. % Pres. hPa Vis. km Vento km/h
Oggi h: 20:50 nuvoloso Nuvoloso 18 15 82 1018 10 N 3.7
Oggi h: 20:20 nuvoloso Nuvoloso 18 15 82 1018 10 N 3.7
Oggi h: 19:50 nuvoloso Nuvoloso 19 15 77 1018 10 N 3.7
Oggi h: 19:20 nuvoloso Nuvoloso 19 15 77 1018 10 N 5.5
Oggi h: 17:50 nuvoloso Nuvoloso 20 14 68 1018 10 N 5.5
Oggi h: 17:20 nuvoloso Nuvoloso 20 14 68 1018 10 N 5.5
Oggi h: 16:50 nuvoloso Nuvoloso 20 14 68 1018 10 NE 7.4
Oggi h: 16:20 nuvoloso Nuvoloso 20 14 68 1018 10 NE 9.3
Oggi h: 15:50 nuvoloso Nuvoloso 20 14 68 1018 10 N 5.5
Oggi h: 15:20 nuvoloso Nuvoloso 20 14 68 1018 10 E/NE 9.3
Oggi h: 14:50 nuvoloso Nuvoloso 20 14 68 1018 10 NE 7.4
Oggi h: 14:20 nuvoloso Nuvoloso 20 15 72 1019 10 N/NE 7.4
Oggi h: 13:20 molto_nuvoloso Molto Nuvoloso 20 13 64 1019 10 NE 11.1
Oggi h: 12:50 molto_nuvoloso Molto Nuvoloso 20 13 64 1019 10 E/NE 13
Oggi h: 12:20 molto_nuvoloso Molto Nuvoloso 20 14 68 1019 10 N/NE 7.4
Oggi h: 11:50 molto_nuvoloso Molto Nuvoloso 19 14 72 1019 10 N 5.5
Oggi h: 11:20 molto_nuvoloso Molto Nuvoloso 19 14 72 1020 10 N 3.7
Oggi h: 10:50 molto_nuvoloso Molto Nuvoloso 18 13 72 1020 10 N 3.7
Oggi h: 10:20 molto_nuvoloso Molto Nuvoloso 17 13 77 1020 10 N 3.7
Oggi h: 09:50 molto_nuvoloso Molto Nuvoloso 17 14 82 1020 10 N 3.7
Oggi h: 09:20 molto_nuvoloso Molto Nuvoloso 17 14 82 1020 10 N 3.7
Oggi h: 08:50 molto_nuvoloso Molto Nuvoloso 16 14 87 1020 10 N 1.8
Oggi h: 08:20 molto_nuvoloso Molto Nuvoloso 15 14 93 1019 10 N 1.8
Oggi h: 07:50 molto_nuvoloso Molto Nuvoloso 15 14 93 1019 10 N 1.8
Oggi h: 07:20 coperto_pioggia Pioggia Debole 15 13 87 1019 10 N 1.8
Oggi h: 06:50 coperto Coperto 15 13 87 1019 10 N 1.8
Oggi h: 06:20 coperto Coperto 15 13 87 1019 10 N 1.8
Oggi h: 05:50 molto_nuvoloso Molto Nuvoloso 16 13 82 1019 10 N 3.7
Oggi h: 05:20 coperto Coperto 15 13 87 1019 10 N 3.7
Oggi h: 04:50 coperto Coperto 15 13 87 1019 10 N 1.8
Oggi h: 04:20 coperto Coperto 15 13 87 1019 10 N 3.7
Oggi h: 03:50 coperto Coperto 15 13 87 1019 10 N 1.8
Oggi h: 03:20 coperto Coperto 15 13 87 1020 10 N 1.8
Oggi h: 02:50 coperto Coperto 15 13 87 1020 10 N 3.7
Oggi h: 02:20 coperto Coperto 15 13 87 1020 10 N 3.7
Oggi h: 01:50 molto_nuvoloso Molto Nuvoloso 15 13 87 1020 10 N 1.8
Oggi h: 01:20 molto_nuvoloso Molto Nuvoloso 15 13 87 1020 10 N 1.8
Oggi h: 00:50 molto_nuvoloso Molto Nuvoloso 16 13 82 1020 10 N 5.5
Oggi h: 00:20 coperto Coperto 16 13 82 1020 10 N 3.7
Ieri h: 23:50 molto_nuvoloso Molto Nuvoloso 16 13 82 1020 10 N 1.8
Ieri h: 23:20 molto_nuvoloso Molto Nuvoloso 16 13 82 1021 10 N 3.7
Ieri h: 22:50 nuvoloso Nuvoloso 16 13 82 1021 10 N 3.7
Ieri h: 22:20 nuvoloso Nuvoloso 17 13 77 1021 10 N 3.7
Ieri h: 21:50 nuvoloso Nuvoloso 17 14 82 1021 10 N 5.5